[[{"header":{"parameterUnit":"m.s-1","parameterCategory":1,"la1":30.2991,"la2":30.254,"lo1":-89.0895,"lo2":-89.0444,"dy":0.0017,"dx":0.0017,"nx":28,"ny":28,"refTime":"2023-09-03T09:00:00:Z","depth":0,"parameterNumber":2,"parameterNumberName":"U-component_of_WINDS"},"data":[0,0,0,0,0,0,0,0,0,0,0,0,0,0,0,0,0,0,0,0,0,0,0,0,0,0,0,0,0,0,0,0,0,0,0,0,0,0,0,0,0,0,0,0,0,0,0,0,0,0,0,0,0,0,0,0,0,0,-3.4475,-3.4474,0,-3.4377,-3.4376,-3.4375,-3.4185,-3.4181,-3.4178,-3.4174,-3.4079,-3.408,-3.4081,0,0,0,0,0,0,0,0,0,0,0,0,0,-3.4503,-3.4504,-3.4475,-3.4474,-3.4472,-3.4377,-3.4376,-3.4375,-3.4186,-3.4181,-3.4177,-3.4172,-3.4079,-3.408,-3.4081,0,0,0,0,0,0,0,0,0,0,0,0,0,-3.4457,-3.4504,-3.4475,-3.4367,-3.4356,-3.4378,-3.4376,-3.4374,-3.4187,-3.4181,-3.4176,-3.417,-3.4078,-3.408,-3.4081,-3.4202,0,0,-3.4086,-3.4086,0,0,0,0,0,0,0,0,-3.446,-3.4456,-3.4384,-3.4374,-3.4362,-3.4287,-3.4351,-3.4317,-3.4188,-3.4251,-3.4174,-3.4168,-3.4153,-3.4148,-3.4142,-3.4198,-3.4194,-3.4086,-3.4087,-3.4087,-3.4088,0,0,0,0,0,0,0,-3.4463,-3.446,-3.4436,-3.4383,-3.437,-3.4325,-3.4312,-3.4344,-3.4235,-3.4245,-3.4231,-3.4222,-3.4146,-3.4141,-3.4139,-3.4192,-3.4086,-3.4087,-3.4088,-3.4088,-3.4342,-3.4347,0,0,0,0,0,0,-3.4482,-3.4463,-3.4439,-3.4433,-3.4398,-3.4329,-3.4314,-3.4317,-3.4234,-3.4216,-3.4227,-3.4214,-3.4142,-3.4137,-3.4135,-3.4269,-3.4087,-3.4088,-3.4089,-3.4336,-3.4343,-3.4349,0,0,0,0,0,0,-3.4483,-3.4481,-3.4443,-3.4444,-3.4436,-3.4334,-3.4339,-3.4318,-3.4313,-3.422,-3.42,-3.4241,-3.4137,-3.4133,-3.4186,-3.4263,-3.4089,-3.409,-3.4329,-3.4338,-3.4346,-3.4541,0,0,0,0,0,0,-3.4485,-3.4483,-3.4526,-3.4447,-3.4437,-3.4495,-3.4344,-3.432,-3.4315,-3.4297,-3.4228,-3.4212,-3.4132,-3.4185,-3.4188,-3.4262,-3.4092,-3.4321,-3.4333,-3.4343,-3.4527,-3.4555,-3.458,0,0,0,0,0,-3.4486,-3.4586,-3.453,-3.4528,-3.4489,-3.45,-3.4495,-3.44,-3.4322,-3.4366,-3.4306,-3.4214,-3.4256,-3.4192,-3.4193,-3.427,-3.4316,-3.433,-3.4342,-3.4515,-3.455,-3.4579,0,0,0,0,0,0,-3.4679,-3.4574,-3.451,-3.4586,-3.4554,-3.4468,-3.452,-3.4439,-3.4429,-3.4412,-3.4297,-3.4283,-3.4352,-3.4316,-3.4248,-3.4382,-3.4271,-3.4285,-3.4402,-3.4434,-3.446,-3.4466,-3.4093,0,0,0,0,0,-3.473,-3.4747,-3.4655,-3.4732,-3.4718,-3.4623,-3.4624,-3.4554,-3.4516,-3.4501,-3.4446,-3.4414,-3.4419,-3.4425,-3.4425,-3.4522,-3.4504,-3.4576,-3.4602,-3.4624,-3.4637,-3.4685,-3.4715,-3.4393,-3.4392,-3.4392,0,0,-3.4837,-3.4781,-3.4799,-3.4769,-3.4735,-3.4756,-3.4612,-3.464,-3.4655,-3.4506,-3.4552,-3.4511,-3.4468,-3.4544,-3.4574,-3.4516,-3.4722,-3.4641,-3.4659,-3.4659,-3.4701,-3.4732,-3.4759,-3.4402,-3.44,-3.4398,0,0,-3.504,-3.5,-3.5059,-3.5028,-3.4978,-3.4914,-3.493,-3.4856,-3.4823,-3.4867,-3.4756,-3.4773,-3.4785,-3.4758,-3.4747,-3.4943,-3.4857,-3.4947,-3.5082,-3.5131,-3.5156,-3.5178,-3.5247,-3.5273,-3.496,-3.4961,-3.4961,0,-3.5178,-3.5203,-3.51,-3.5135,-3.5125,-3.4991,-3.5051,-3.5027,-3.4981,-3.4978,-3.4914,-3.4926,-3.4887,-3.4955,-3.5003,-3.4998,-3.5012,-3.4952,-3.5161,-3.5182,-3.5201,-3.5265,-3.5291,-3.4972,-3.4971,-3.497,-3.4968,0,-3.5375,-3.5395,-3.5449,-3.5406,-3.5403,-3.5451,-3.5356,-3.5366,-3.5298,-3.5242,-3.5289,-3.5239,-3.5226,-3.5238,-3.5172,-3.5296,-3.5261,-3.5181,-3.5066,-3.5244,-3.5302,-3.5326,-3.4988,-3.4984,-3.498,-3.4978,0,0,-3.5694,-3.5594,-3.5616,-3.5594,-3.5531,-3.5545,-3.5588,-3.5574,-3.5584,-3.5559,-3.5591,-3.5606,-3.5531,-3.5518,-3.5448,-3.5491,-3.5648,-3.5405,-3.5402,-3.545,-3.5781,-3.584,-3.587,-3.5592,-3.5597,-3.56,-3.5784,0,-3.5881,-3.5945,-3.5855,-3.594,-3.5957,-3.5831,-3.5869,-3.5835,-3.5785,-3.5793,-3.5738,-3.5749,-3.565,-3.5641,-3.5678,-3.5621,-3.5713,-3.5607,-3.5622,-3.5623,-3.5633,-3.5901,-3.5963,-3.6139,-3.5807,-3.5811,-3.5813,0,-3.6107,-3.609,-3.6177,-3.6108,-3.6112,-3.6147,-3.6127,-3.6137,-3.6097,-3.6057,-3.6044,-3.5961,-3.5999,-3.5891,-3.5942,-3.5873,-3.5874,-3.5848,-3.5852,-3.5847,-3.5727,-3.5902,-3.6193,-3.6219,-3.5848,-3.5846,-3.5843,0,-3.6328,-3.6328,-3.6379,-3.6366,-3.6288,-3.6315,-3.6284,-3.6239,-3.6236,-3.6221,-3.6218,-3.6208,-3.6202,-3.6197,-3.6114,-3.6043,-3.6176,-3.606,-3.6144,-3.6146,-3.6175,-3.6173,-3.6468,-3.6181,-3.6181,-3.618,-3.618,0,-3.6545,-3.6602,-3.6477,-3.6509,-3.657,-3.6468,-3.6532,-3.6489,-3.645,-3.6471,-3.6364,-3.6388,-3.6277,-3.629,-3.6226,-3.6278,-3.6277,-3.6246,-3.6227,-3.6254,-3.6257,-3.6251,-3.6235,-3.6187,-3.6185,-3.6184,-3.6183,0,-3.68,-3.6719,-3.6766,-3.6689,-3.6671,-3.672,-3.6654,-3.6681,-3.6625,-3.6654,-3.6655,-3.6567,-3.6576,-3.6493,-3.6487,-3.6444,-3.6525,-3.6487,-3.6538,-3.6525,-3.6612,-3.6604,-3.691,-3.6945,-3.6639,-3.6642,-3.6645,0,-3.6942,-3.6983,-3.6911,-3.6917,-3.6891,-3.6903,-3.69,-3.6802,-3.6804,-3.6762,-3.6795,-3.6794,-3.6788,-3.6809,-3.6745,-3.674,-3.6699,-3.6807,-3.6697,-3.6722,-3.6698,-3.6695,-3.6698,-3.6829,-3.6833,-3.6836,-3.6839,0,-3.7202,-3.716,-3.7159,-3.7145,-3.7144,-3.7128,-3.7106,-3.7118,-3.7012,-3.702,-3.7026,-3.7022,-3.7015,-3.7017,-3.6999,-3.6969,-3.6887,-3.6874,-3.6893,-3.6918,-3.6945,-3.6929,-3.6598,-3.6867,-3.6864,-3.6862,-3.686,-3.6859,-3.7403,-3.7433,-3.7387,-3.7389,-3.7362,-3.7344,-3.7365,-3.7312,-3.7315,-3.7301,-3.7244,-3.7262,-3.7222,-3.719,-3.7168,-3.7181,-3.7128,-3.7156,-3.7162,-3.717,-3.7185,-3.6946,-3.7178,-3.7177,-3.7176,-3.7175,-3.7175,0,-3.7655,-3.7619,-3.7623,-3.7594,-3.7597,-3.752,-3.7492,-3.7499,-3.7515,-3.7485,-3.7482,-3.7491,-3.7492,-3.7429,-3.7423,-3.7445,-3.7407,-3.7447,-3.7442,-3.7437,-3.7233,-3.7216,-3.7477,-3.7477,-3.7477,-3.7477,-3.7477,-3.7477,-3.7786,-3.7832,-3.7786,-3.782,-3.7784,-3.7798,-3.7789,-3.7772,-3.7747,-3.7762,-3.7762,-3.7721,-3.7678,-3.7668,-3.7666,-3.7648,-3.7649,-3.7701,-3.7671,-3.7481,-3.7451,-3.7423,-3.7407,-3.7703,-3.7704,-3.7872,-3.7874,-3.7875]},{"header":{"parameterUnit":"m.s-1","parameterCategory":1,"la1":30.2991,"la2":30.254,"lo1":-89.0895,"lo2":-89.0444,"dy":0.0017,"dx":0.0017,"nx":28,"ny":28,"refTime":"2023-09-03T09:00:00:Z","depth":0,"parameterNumber":3,"parameterNumberName":"V-component_of_WINDS"},"data":[0,0,0,0,0,0,0,0,0,0,0,0,0,0,0,0,0,0,0,0,0,0,0,0,0,0,0,0,0,0,0,0,0,0,0,0,0,0,0,0,0,0,0,0,0,0,0,0,0,0,0,0,0,0,0,0,0,0,-0.6499,-0.65,0,-0.6584,-0.6585,-0.6586,-0.6692,-0.6694,-0.6695,-0.6697,-0.6781,-0.6782,-0.6783,0,0,0,0,0,0,0,0,0,0,0,0,0,-0.6427,-0.6427,-0.6499,-0.65,-0.6501,-0.6584,-0.6585,-0.6586,-0.6692,-0.6694,-0.6696,-0.6698,-0.6781,-0.6782,-0.6783,0,0,0,0,0,0,0,0,0,0,0,0,0,-0.6479,-0.6428,-0.6499,-0.6564,-0.6571,-0.6584,-0.6585,-0.6586,-0.6691,-0.6694,-0.6696,-0.6699,-0.6781,-0.6782,-0.6783,-0.6738,0,0,-0.6786,-0.6786,0,0,0,0,0,0,0,0,-0.6476,-0.6482,-0.6553,-0.656,-0.6567,-0.663,-0.659,-0.6637,-0.669,-0.6645,-0.6697,-0.67,-0.6729,-0.6734,-0.6744,-0.6742,-0.6746,-0.6786,-0.6786,-0.6787,-0.6787,0,0,0,0,0,0,0,-0.6472,-0.6479,-0.6533,-0.6554,-0.6563,-0.6588,-0.6598,-0.66,-0.6672,-0.6649,-0.6657,-0.6666,-0.6733,-0.6743,-0.6747,-0.6747,-0.6786,-0.6787,-0.6787,-0.6788,-0.6709,-0.6707,0,0,0,0,0,0,-0.6459,-0.6475,-0.653,-0.6535,-0.6527,-0.6587,-0.6599,-0.6607,-0.6672,-0.6684,-0.6664,-0.6671,-0.674,-0.6746,-0.675,-0.6701,-0.6787,-0.6788,-0.6788,-0.6712,-0.6709,-0.6706,0,0,0,0,0,0,-0.6457,-0.6463,-0.6527,-0.6507,-0.6517,-0.6586,-0.6594,-0.6607,-0.6618,-0.6683,-0.6696,-0.6661,-0.6742,-0.6749,-0.674,-0.6705,-0.6788,-0.6789,-0.6715,-0.6711,-0.6707,-0.6601,0,0,0,0,0,0,-0.6455,-0.6462,-0.6446,-0.6506,-0.6518,-0.6515,-0.6592,-0.6607,-0.662,-0.6629,-0.6684,-0.6695,-0.6745,-0.6738,-0.6741,-0.6708,-0.679,-0.6719,-0.6713,-0.6709,-0.6608,-0.6594,-0.6582,0,0,0,0,0,-0.6452,-0.6413,-0.6445,-0.6451,-0.65,-0.6513,-0.652,-0.6578,-0.6616,-0.6601,-0.6642,-0.6693,-0.6709,-0.6736,-0.674,-0.6707,-0.6721,-0.6715,-0.6709,-0.6614,-0.6596,-0.6582,0,0,0,0,0,0,-0.6347,-0.6422,-0.6458,-0.6438,-0.6468,-0.6531,-0.6513,-0.6559,-0.6578,-0.6586,-0.6658,-0.6669,-0.6651,-0.6679,-0.6708,-0.6666,-0.6722,-0.6717,-0.6648,-0.6632,-0.662,-0.6612,-0.6791,0,0,0,0,0,-0.6321,-0.6326,-0.6392,-0.6367,-0.6381,-0.6444,-0.6452,-0.6494,-0.6528,-0.6541,-0.6582,-0.6613,-0.6624,-0.663,-0.6645,-0.6613,-0.6625,-0.6592,-0.6579,-0.6568,-0.6562,-0.6544,-0.653,-0.6686,-0.6686,-0.6686,0,0,-0.6269,-0.631,-0.6309,-0.6347,-0.6376,-0.6378,-0.6454,-0.6454,-0.6456,-0.6541,-0.6535,-0.6565,-0.6604,-0.6582,-0.6575,-0.6605,-0.6521,-0.656,-0.6551,-0.6551,-0.6537,-0.6522,-0.6508,-0.6682,-0.6683,-0.6684,0,0,-0.6173,-0.6206,-0.6189,-0.6215,-0.6258,-0.63,-0.6295,-0.6351,-0.6374,-0.6369,-0.6433,-0.6436,-0.6455,-0.6479,-0.6494,-0.6406,-0.6453,-0.6409,-0.634,-0.6322,-0.631,-0.6299,-0.6265,-0.6253,-0.6403,-0.6402,-0.6402,0,-0.6102,-0.6109,-0.6174,-0.6169,-0.6183,-0.6261,-0.6242,-0.6265,-0.6309,-0.6316,-0.635,-0.6374,-0.6405,-0.6389,-0.6368,-0.6378,-0.6373,-0.6402,-0.6306,-0.6296,-0.6287,-0.6256,-0.6243,-0.6397,-0.6397,-0.6398,-0.6398,0,-0.6018,-0.6022,-0.6002,-0.6043,-0.6055,-0.6043,-0.6105,-0.6109,-0.615,-0.6188,-0.618,-0.6221,-0.6244,-0.6244,-0.6284,-0.6233,-0.625,-0.6293,-0.6351,-0.6265,-0.6237,-0.6226,-0.6388,-0.639,-0.6392,-0.6393,0,0,-0.5859,-0.5935,-0.5926,-0.5944,-0.5996,-0.6,-0.5991,-0.6014,-0.6015,-0.6042,-0.6035,-0.6049,-0.6089,-0.6106,-0.615,-0.6135,-0.6059,-0.618,-0.6182,-0.6154,-0.6002,-0.5967,-0.5952,-0.6092,-0.609,-0.6088,-0.5998,0,-0.5771,-0.5761,-0.5818,-0.5792,-0.5794,-0.5868,-0.586,-0.589,-0.5925,-0.5932,-0.5971,-0.5978,-0.6032,-0.6042,-0.6031,-0.6071,-0.6029,-0.6078,-0.6084,-0.6083,-0.6069,-0.5938,-0.5901,-0.5815,-0.5988,-0.5986,-0.5985,0,-0.5668,-0.569,-0.5663,-0.5715,-0.5718,-0.571,-0.5734,-0.574,-0.5775,-0.5802,-0.5819,-0.5869,-0.5863,-0.5919,-0.591,-0.5942,-0.5947,-0.5967,-0.5965,-0.5966,-0.6027,-0.5933,-0.5789,-0.5774,-0.5968,-0.597,-0.5971,0,-0.5551,-0.5574,-0.5561,-0.5574,-0.5635,-0.5627,-0.5651,-0.5689,-0.5698,-0.5719,-0.5726,-0.5746,-0.5756,-0.577,-0.5823,-0.586,-0.5806,-0.5868,-0.5826,-0.5825,-0.581,-0.581,-0.5662,-0.5818,-0.5818,-0.5818,-0.5818,0,-0.5446,-0.5427,-0.5509,-0.55,-0.548,-0.5545,-0.5523,-0.5555,-0.5587,-0.5585,-0.5651,-0.5647,-0.5719,-0.5723,-0.5766,-0.575,-0.5755,-0.5775,-0.5785,-0.5767,-0.5764,-0.5771,-0.5777,-0.5815,-0.5815,-0.5816,-0.5817,0,-0.5312,-0.5366,-0.5356,-0.5414,-0.5427,-0.5409,-0.5458,-0.5452,-0.5491,-0.5488,-0.549,-0.5551,-0.5559,-0.5615,-0.5635,-0.5664,-0.5631,-0.5656,-0.5619,-0.5626,-0.5581,-0.5583,-0.543,-0.5412,-0.558,-0.5579,-0.5577,0,-0.524,-0.5227,-0.5282,-0.5286,-0.5307,-0.5312,-0.5322,-0.5385,-0.5392,-0.543,-0.5419,-0.5432,-0.5446,-0.5455,-0.55,-0.5516,-0.5539,-0.5485,-0.5542,-0.5523,-0.5536,-0.5535,-0.5533,-0.5471,-0.5469,-0.5468,-0.5466,0,-0.5106,-0.5134,-0.5145,-0.5165,-0.5175,-0.5194,-0.5217,-0.5216,-0.5286,-0.529,-0.5299,-0.531,-0.5331,-0.5342,-0.5365,-0.539,-0.5438,-0.5448,-0.5439,-0.5419,-0.5397,-0.5406,-0.5583,-0.5451,-0.5452,-0.5453,-0.5454,-0.5455,-0.5,-0.499,-0.5027,-0.5037,-0.5061,-0.5081,-0.5077,-0.5115,-0.5124,-0.5146,-0.5183,-0.5186,-0.522,-0.5256,-0.5276,-0.5278,-0.5307,-0.5295,-0.5291,-0.5286,-0.5275,-0.5399,-0.5283,-0.5284,-0.5284,-0.5285,-0.5285,0,-0.4867,-0.4895,-0.4903,-0.4933,-0.494,-0.4987,-0.5014,-0.5016,-0.5018,-0.5046,-0.5058,-0.5067,-0.5078,-0.5124,-0.514,-0.5133,-0.5155,-0.5135,-0.5135,-0.5139,-0.525,-0.5255,-0.5116,-0.5116,-0.5116,-0.5116,-0.5116,-0.5116,-0.4799,-0.4785,-0.4816,-0.4813,-0.4841,-0.4844,-0.4855,-0.4873,-0.4895,-0.4902,-0.4912,-0.4942,-0.4977,-0.4995,-0.5007,-0.502,-0.5022,-0.4993,-0.5013,-0.5115,-0.5131,-0.5147,-0.5152,-0.4993,-0.4993,-0.4901,-0.49,-0.49]}]]